User: anonymous   Login
Location: Newark
(30.1000°N, 109.4667°E)
Time: 16:34:53
(UTC+00:00)
Language:

Transit 2A Rocket - Orbit

View from above orbital plane
View from above orbital plane
View from above satellite
View from above satellite

Ground track
Ground track

The orbit data is extracted from the following two-line orbital elements,

1    47U 60007C   20056.30736862 -.00000032  00000-0  17910-4 0  9990
2    47  66.6650  97.5616 0224836  24.2627 336.8867 14.42073123118811
Epoch (UTC): 25 February 2020 07:22:36
Eccentricity: 0.0224836
inclination: 66.6650°
perigee height: 591 km
apogee height: 912 km
right ascension of ascending node: 97.5616°
argument of perigee: 24.2627°
revolutions per day: 14.42073123
mean anomaly at epoch: 336.8867°
orbit number at epoch: 11881

The dashed part of the orbit path shows where the satellite is in the earth's shadow,  

DLR